Location: Mt. Cuba Astronomical Observatory
(39.8100°N, 75.6300°W)
Time: 06:46:10
(UTC-04:00)

Daily predictions for brighter satellites

Satellite Brightness Start Highest point End
(mag) Time Altitude Azimuth Time Altitude Azimuth Time Altitude Azimuth
Cosmos 1812 3.3 20:43:53 10° SSW 20:47:44 62° W 20:51:35 10° N
Cosmos 1709 Rocket 4.0 20:46:33 10° N 20:52:52 86° E 20:59:03 10° S
Cosmos 1743 3.8 20:50:18 10° NNE 20:53:43 28° ENE 20:57:08 10° SE
CZ-2D R/B 4.2 20:51:15 10° S 20:54:58 50° W 20:58:42 10° NNW
Iridium 4 Rocket 3.6 20:50:31 10° N 20:55:31 87° W 21:00:59 10° S
Envisat 3.1 20:51:01 10° SSE 20:56:02 68° ENE 21:01:06 10° N
Spot 1 4.2 20:54:23 10° SSE 20:58:56 65° ENE 21:03:15 10° N
ASTRO E2 4.0 20:56:53 10° SW 21:00:09 24° S 21:03:15 11° SE
ASTEX 1 4.4 20:57:27 10° SE 21:01:40 29° ENE 21:05:53 10° NNE
Aureole 3 Rocket 4.3 20:55:48 10° SSE 21:02:15 42° E 21:06:59 10° NNE
Tiangong 2 2.0 21:07:26 10° SSW 21:10:13 28° SSE 21:13:00 10° E
Aureole 1 Rocket 3.5 21:08:56 10° SSE 21:11:47 23° ESE 21:14:21 10° NE
NOSS 2-2 (E) 3.4 21:08:51 10° SSW 21:12:50 82° ESE 21:17:25 10° NE
SL-08 ROCKET BODY 4.5 21:12:53 10° N 21:19:04 73° E 21:25:14 10° SSE
Meteor 2-4 Rocket 4.1 21:14:25 10° SSE 21:19:40 44° E 21:25:06 10° NNE
USA 186 4.0 21:19:42 10° SSW 21:22:26 25° W 21:25:07 10° NW
ISS -2.8 21:19:40 10° SSW 21:22:29 26° SE 21:25:19 10° ENE
Cosmos 1666 3.1 21:20:49 10° N 21:24:24 43° E 21:26:56 17° SE
Meteor 2-13 Rocket 4.5 21:20:26 10° N 21:26:27 64° E 21:32:05 12° SSE
OAO 2 Rocket 3.7 21:22:23 10° WSW 21:27:04 44° S 21:31:02 14° ESE
Cosmos 923 Rocket 4.0 21:21:46 10° SSW 21:27:06 80° ESE 21:32:25 10° NNE
Cosmos 1536 Rocket 4.1 21:28:06 10° SSW 21:32:22 61° W 21:36:40 10° N
CZ-3A R/B 1.9 21:28:30 10° SSW 21:32:45 23° SE 21:33:08 23° SE
Cosmos 2184 Rocket 4.0 21:26:37 10° N 21:32:59 74° E 21:38:55 12° SSE
Cosmos 2074 Rocket 4.0 21:26:56 10° N 21:33:12 77° E 21:39:14 11° SSE
Cosmos 1437 3.8 21:31:27 10° SSW 21:34:33 46° WNW 21:37:41 10° N
CZ-4B DEB 3.6 21:31:53 10° S 21:34:45 44° W 21:37:39 10° NNW
Helios 1A 4.0 21:30:50 10° S 21:34:52 44° W 21:38:55 10° NNW
USA 245 4.0 21:38:45 19° E 21:39:02 20° ENE 21:40:58 10° NNE
Meteor 1-29 4.2 21:37:05 10° N 21:40:19 42° WNW 21:43:29 10° SW
Meteor 1-19 Rocket 4.3 21:35:01 10° S 21:40:52 86° W 21:46:39 10° N
YAOGAN 6 2.9 21:42:06 15° S 21:44:51 62° W 21:48:20 10° NNW
ERS-1 Rocket 2.9 21:41:29 16° SSE 21:45:31 85° ENE 21:50:34 10° NNW
Cosmos 1656 Rocket 3.7 21:40:09 10° NNW 21:45:35 75° WSW 21:49:49 17° SSE
Meteor 1-23 Rocket 4.2 21:43:45 12° S 21:48:49 60° E 21:54:19 10° NNE
MetOp-A 4.2 21:45:09 19° SSE 21:48:57 69° ENE 21:54:17 10° N
MOS 1-B Rocket 4.0 21:46:03 19° SSE 21:50:09 68° ENE 21:56:22 10° N
Cosmos 405 Rocket 3.6 21:47:57 10° SSW 21:51:34 49° WNW 21:55:17 10° N
GENESIS II 4.4 21:49:28 10° NNW 21:53:23 58° NE 21:55:01 31° ESE
H-2A R/B 2.8 21:52:51 23° ESE 21:55:07 35° ENE 21:59:38 10° N
Cosmos 2058 Rocket 4.4 21:53:56 10° NNE 21:57:30 23° ENE 21:58:33 21° E
Meteor 1-15 Rocket 4.3 21:52:53 10° N 21:58:25 57° ENE 22:01:25 26° SSE
Cosmos 2112 Rocket 4.1 21:54:41 10° SSW 21:59:55 80° WNW 22:05:09 10° NNE
Cosmos 192 4.2 21:55:41 10° SSW 22:00:35 85° ESE 22:05:31 10° NNE
Cosmos 1025 Rocket 2.9 21:58:34 22° S 22:01:18 75° E 22:05:34 10° N
Cosmos 1943 Rocket 4.1 21:57:03 10° NW 22:01:20 23° W 22:05:35 10° SSW
CENTAUR R/B 3.4 21:55:19 10° NW 22:03:15 67° WSW 22:09:18 21° SSE
Cosmos 1441 Rocket 3.3 22:01:18 15° SSW 22:04:17 69° W 22:08:01 10° N
Nadezhda 1 Rocket 4.2 22:01:03 10° SSW 22:07:23 77° W 22:13:49 10° N
Cosmos 1624 Rocket 4.4 22:03:37 10° N 22:08:44 49° ENE 22:10:57 31° SE
PSLV R/B 3.1 22:06:52 10° W 22:09:59 74° N 22:10:40 50° ENE
NOAA 11 4.3 22:07:48 21° S 22:11:30 73° WSW 22:16:56 10° NNW
SL-08 RB Rocket 3.6 22:14:43 37° SSE 22:16:25 74° ENE 22:20:53 10° N
ARGOS 3.1 22:13:33 28° SSE 22:16:31 90° WSW 22:21:59 10° NNW
COSMOS 2406 4.2 22:11:04 10° SW 22:16:36 47° WNW 22:22:07 10° NNE
Cosmos 2154 Rocket 4.0 22:10:13 10° N 22:16:36 86° E 22:20:26 26° S
SL-27 R/B 3.5 22:14:40 10° SW 22:18:12 47° WNW 22:21:46 10° N
Nimbus 7 Rocket 4.4 22:12:13 10° NNE 22:18:16 71° ESE 22:22:26 21° S
Landsat 7 4.2 22:21:40 37° ESE 22:23:01 48° ENE 22:27:36 10° N
SPOT 5 2.7 22:23:04 36° S 22:24:45 73° WSW 22:29:05 10° NNW
H-2A R/B 3.1 22:24:49 31° E 22:25:41 33° ENE 22:29:45 10° N
Cosmos 2278 4.3 22:21:14 10° N 22:26:42 44° ENE 22:28:45 32° ESE
Cosmos 2056 Rocket 3.5 22:22:21 10° NNW 22:27:31 67° ENE 22:29:09 42° SE
Cosmos 2082 Rocket 2.9 22:28:02 33° ESE 22:28:24 33° ESE 22:33:24 10° NE
Cosmos 405 4.3 22:30:37 10° NNW 22:33:55 36° W 22:34:56 29° SW
Terra 2.2 22:37:12 42° ESE 22:38:05 47° ENE 22:42:39 10° N
CZ-4B R/B 4.5 22:35:00 10° NE 22:39:09 29° E 22:39:09 29° E
Cosmos 839 Rocket 4.4 22:34:56 10° NNW 22:41:30 71° ENE 22:44:54 36° SE
Meteor 2-19 Rocket 4.4 22:35:26 10° N 22:41:35 81° W 22:44:22 35° S
Cosmos 967 Rocket 4.3 22:38:24 11° SSW 22:44:23 85° ESE 22:50:41 10° NNE
Cosmos 2341 Rocket 4.1 22:38:20 10° N 22:44:41 80° W 22:47:39 34° S
Cosmos 2369 3.9 22:39:40 10° NNW 22:45:22 61° ENE 22:46:58 44° ESE
SPOT 1/Viking Rocket 3.7 22:44:16 39° S 22:46:09 67° WSW 22:51:18 10° NNW
COSMOS 2487 3.4 22:47:21 39° NE 22:47:21 39° NE 22:49:49 10° NNE
Tiangong 2 2.5 22:43:39 10° W 22:45:36 34° W 22:45:36 34° W
Cosmos 1437 Rocket 3.4 22:45:10 10° NNW 22:48:50 45° W 22:49:25 42° WSW
Cosmos 1697 Rocket 3.5 22:49:50 10° N 22:55:02 37° ENE 22:56:25 32° E
IGS 5A 3.4 22:56:43 68° ENE 22:56:43 68° ENE 23:00:52 10° N
ISS -2.1 22:55:51 10° W 22:58:54 34° NNW 23:01:57 10° NE
Cosmos 1452 Rocket 3.8 22:54:37 10° N 22:59:47 53° ENE 23:00:34 49° E
Cosmos 2218 Rocket 3.9 22:54:54 10° N 23:01:04 72° E 23:02:38 51° SSE
Cosmos 1892 Rocket 4.4 23:01:37 33° SW 23:03:06 46° W 23:07:22 10° N
Cosmos 2228 3.0 23:02:27 10° NNW 23:06:45 69° W 23:06:54 69° WSW
Cosmos 1602 Rocket 3.8 23:10:37 59° NE 23:10:37 59° NE 23:14:24 10° NNE
OAO 2 Rocket 4.2 23:06:43 10° W 23:10:00 36° SW 23:10:00 36° SW
deb Chang Zheng 4 3.5 23:07:11 10° NNE 23:11:26 86° NNW 23:11:26 86° NNW
Cosmos 1833 Rocket 2.5 23:11:23 63° SSE 23:12:09 73° ESE 23:17:46 10° NNE
Cosmos 921 Rocket 3.3 23:08:20 10° NNW 23:12:45 58° WSW 23:12:53 58° WSW
Cosmos 1656 3.5 23:10:08 10° NNW 23:15:36 76° ENE 23:16:17 66° ESE
Cosmos 1066 Rocket 4.2 23:15:05 52° SSW 23:16:26 77° W 23:22:03 10° N
Meteor 1-21 4.3 23:19:44 55° ESE 23:19:57 55° E 23:25:31 10° NNE
SL-19 R/B 4.2 23:16:15 10° N 23:21:38 74° WNW 23:22:49 53° SW
Cosmos 468 4.4 23:24:10 74° ESE 23:24:11 74° ESE 23:29:28 10° NNE
CZ-4 R/B 3.9 23:21:02 10° NNE 23:26:04 83° WNW 23:26:30 74° SW
Cosmos 1766 4.2 23:22:20 10° N 23:25:11 43° NNE 23:25:11 43° NNE
Nadezhda 3 Rocket 4.2 23:29:12 51° ESE 23:29:49 53° E 23:35:59 10° NNE
Meteor 1-4 Rocket 3.9 23:27:53 10° NNW 23:30:20 37° NW 23:30:20 37° NW
USA 267 3.1 23:25:08 10° NE 23:31:41 75° SE 23:34:02 43° SSW
Cosmos 1809 Rocket 4.5 23:25:41 10° NNW 23:31:44 71° W 23:32:56 56° SSW
Meteor 2-14 Rocket 4.2 23:28:12 10° N 23:34:18 88° E 23:35:08 68° SSE
H-2A R/B 3.5 23:33:29 23° WSW 23:34:35 25° W 23:38:39 10° NW
Cosmos 1980 Rocket 2.5 23:36:25 10° NNW 23:41:57 53° ENE 23:42:26 51° E
SME Rocket 3.9 23:46:35 54° E 23:46:45 55° ENE 23:51:08 10° N
SeaSat 1 3.3 23:46:39 37° ENE 23:46:59 38° ENE 23:51:32 10° N
Cosmos 1821 Rocket 4.4 23:43:39 10° N 23:49:43 49° ENE 23:50:18 48° E
Cosmos 2322 Rocket 3.8 23:45:37 10° N 23:50:10 24° NE 23:51:42 21° ENE
